Weather History for Redding, CA

Change the Weather History Date:

Monday, September 9, 2013

  Actual Average Record
Temperature  
Mean Temperature 87 °F -  
Max Temperature 106 °F 92 °F 108 °F (2011)
Min Temperature 68 °F 59 °F 52 °F (1986)
Degree Days  
Heating Degree Days 0    
Cooling Degree Days 22    
Growing Degree Days 42 (Base 50)    
Moisture  
Dew Point 39 °F    
Average Humidity 26    
Maximum Humidity 44    
Minimum Humidity 7    
Precipitation  
Precipitation 0.00 in 0.01 in 0.02 in (2003)
Month to date precipitation 0.00 0.15  
Year to date precipitation 9.30 21.28  
Since 1 July precipitation T 0.42  
Sea Level Pressure  
Sea Level Pressure 29.70 in    
Wind  
Wind Speed 9 mph (North)    
Max Wind Speed 26 mph    
Max Gust Speed 31 mph    
Visibility 10 miles    
Events      
T = Trace of Precipitation, MM = Missing Value Source: NWS Daily Summary

Daily Weather History Graph

Daily Weather History Graph

Search for Another Location

Airport:

Trip Planner

Search our weather history database for the weather conditions in past years. The results will help you decide how hot, cold, wet, or windy it might be!

Date:

Astronomy

Sep. 09, 2013 Rise Set
Actual Time 6:44 AM PDT 7:27 PM PDT
Civil Twilight 6:16 AM PDT 7:55 PM PDT
Nautical Twilight 5:44 AM PDT 8:27 PM PDT
Astronomical Twilight 5:10 AM PDT 9:01 PM PDT
Moon 11:13 AM PDT (9/9) 9:46 PM PDT (9/9)
Length of Visible Light 13h 38m
Length of Day
12h 43m
Waxing Crescent, 20% of the Moon is Illuminated
Sep 9
Waxing Crescent
Sep 12
First Quarter
Sep 19
Full
Sep 26
Last Quarter
Oct 4
New

Hourly Weather History & Observations

Time (PDT) Temp. Dew Point Humidity Pressure Visibility Wind Dir Wind Speed Gust Speed Precip Events Conditions
12:53 AM 75.9 °F 45.0 °F 33% 29.76 in 10.0 mi North 4.6 mph - N/A   Clear
1:53 AM 75.0 °F 46.9 °F 37% 29.77 in 10.0 mi NNW 4.6 mph - N/A   Clear
2:53 AM 71.1 °F 48.0 °F 44% 29.77 in 10.0 mi Calm Calm - N/A   Clear
3:53 AM 73.0 °F 46.0 °F 38% 29.76 in 10.0 mi North 4.6 mph - N/A   Clear
4:53 AM 84.0 °F 43.0 °F 24% 29.76 in 10.0 mi North 10.4 mph - N/A   Clear
5:53 AM 82.9 °F 42.1 °F 24% 29.76 in 10.0 mi NNW 10.4 mph 18.4 mph N/A   Clear
6:53 AM 82.0 °F 42.1 °F 24% 29.77 in 10.0 mi North 10.4 mph - N/A   Clear
7:53 AM 84.0 °F 42.1 °F 23% 29.78 in 10.0 mi North 11.5 mph - N/A   Clear
8:53 AM 86.0 °F 43.0 °F 22% 29.79 in 10.0 mi North 15.0 mph 21.9 mph N/A   Clear
9:53 AM 90.0 °F 44.1 °F 20% 29.78 in 10.0 mi NNW 12.7 mph 23.0 mph N/A   Clear
10:53 AM 93.0 °F 43.0 °F 18% 29.76 in 10.0 mi NNW 15.0 mph - N/A   Clear
11:53 AM 97.0 °F 39.0 °F 13% 29.74 in 10.0 mi NNE 18.4 mph - N/A   Clear
12:53 PM 100.0 °F 37.9 °F 12% 29.72 in 10.0 mi North 20.7 mph 29.9 mph N/A   Clear
1:53 PM 102.9 °F 36.0 °F 10% 29.69 in 10.0 mi North 17.3 mph - N/A   Clear
2:53 PM 104.0 °F 30.9 °F 8% 29.67 in 10.0 mi North 13.8 mph 23.0 mph N/A   Clear
3:53 PM 105.1 °F 28.9 °F 7% 29.64 in 10.0 mi NNE 17.3 mph 21.9 mph N/A   Clear
4:53 PM 105.1 °F 28.0 °F 7% 29.62 in 10.0 mi NNE 9.2 mph - N/A   Clear
5:53 PM 104.0 °F 28.9 °F 7% 29.61 in 10.0 mi North 12.7 mph - N/A   Clear
6:53 PM 100.9 °F 30.9 °F 9% 29.61 in 10.0 mi NNE 6.9 mph - N/A   Clear
7:53 PM 93.9 °F 35.1 °F 13% 29.61 in 10.0 mi North 5.8 mph - N/A   Clear
8:53 PM 91.0 °F 37.9 °F 15% 29.62 in 10.0 mi NNW 5.8 mph - N/A   Clear
9:53 PM 81.0 °F 41.0 °F 24% 29.64 in 10.0 mi NNW 3.5 mph - N/A   Clear
10:53 PM 79.0 °F 42.1 °F 27% 29.66 in 10.0 mi NNW 3.5 mph - N/A   Clear
11:53 PM 82.0 °F 41.0 °F 23% 29.65 in 10.0 mi North 4.6 mph - N/A   Clear